#timestamp,LO_Frequency,Hit,StdDev 
1505426415.7,286047002.4,Y,0.0
1505426435.5,286046999.7,P,0.4
1505426455.4,286046999.8,N,0.4
1505426475.2,286047000.0,N,0.3
1505426495.1,286046999.9,N,0.3
1505426496.0,286046999.9,N,0.3
1505426515.8,286046999.9,N,0.2
1505426535.6,286047000.3,N,0.3
1505426555.5,286047000.6,N,0.3
1505426575.3,286047000.7,N,0.3
1505426595.1,286047000.7,N,0.4
1505426615.9,286047000.8,N,0.4
1505426635.7,286046999.8,N,0.4
1505426655.6,286047000.6,N,0.4
1505426675.4,286047000.3,N,0.4
1505426695.2,286046999.9,N,0.4
1505426715.1,286047000.4,N,0.4
1505426716.0,286047000.4,N,0.4
1505426735.8,286047000.4,N,0.4
1505426755.7,286047001.1,Y,0.0
1505426775.5,286047000.7,P,0.2
1505426795.3,286047000.3,N,0.2
1505426815.2,286046999.9,N,0.3
1505426835.0,286047000.4,N,0.3
1505426835.9,286047000.4,N,0.2
1505426855.7,286047000.5,N,0.2
1505426875.6,286047000.4,N,0.2
1505426895.4,286046999.9,N,0.2
1505426915.3,286047000.1,N,0.2
1505426935.1,286047000.3,N,0.2
1505426936.0,286047000.3,N,0.2
1505426955.8,286046999.9,N,0.2
1505426975.7,286047000.3,N,0.2
1505426995.5,286047000.7,N,0.2
1505427015.4,286046999.9,N,0.3
1505427035.2,286047000.5,N,0.3
1505427055.0,286047002.4,Y,0.0
1505427055.9,286047002.4,P,1.1
1505427075.8,286046999.7,N,1.2
1505427095.6,286047002.2,N,1.2
1505427115.5,286047000.1,N,1.1
1505427135.3,286047002.3,N,1.2
1505427155.1,286047002.3,N,1.1
1505427175.9,286047002.4,N,1.1
1505427195.7,286047000.0,N,1.2
1505427215.6,286047002.7,N,1.2
1505427235.4,286047000.1,N,1.2
1505427255.2,286047000.2,N,1.2
1505427275.1,286047000.2,N,1.2
1505427276.0,286047000.2,N,1.1
1505427295.8,286047000.7,N,1.1
1505427315.6,286047000.4,N,1.1
1505427335.5,286047000.4,N,1.1
1505427355.3,286047002.6,N,1.1
1505427375.2,286047002.1,N,1.1
1505427395.9,286047004.1,Y,0.0
1505427415.7,286046999.9,P,0.6
1505427435.6,286047000.1,N,0.5
1505427455.4,286047000.1,N,0.5
1505427475.3,286047000.2,N,0.4
1505427495.1,286047000.2,N,0.4
1505427496.0,286047000.2,N,0.4
1505427515.8,286046999.9,N,0.4
1505427535.7,286047000.1,N,0.3
1505427555.5,286047000.2,N,0.3
1505427575.4,286047000.4,N,0.3
1505427595.2,286047000.7,N,0.3
1505427615.0,286046998.3,Y,0.0
1505427616.0,286046998.3,P,1.0
1505427635.8,286046999.1,N,0.8
1505427655.6,286046998.4,N,0.8
1505427675.5,286046998.9,N,0.7
1505427695.3,286046998.5,N,0.7
1505427715.1,286046999.0,N,0.6
1505427735.9,286046998.7,N,0.6
1505427755.7,286046998.9,N,0.5
1505427775.6,286046998.8,N,0.5
1505427795.4,286047000.3,N,0.6
1505427815.2,286047001.0,N,0.8
1505427835.1,286046998.6,N,0.8
1505427836.0,286046998.6,N,0.8
1505427855.8,286047001.1,N,0.9
1505427875.7,286046998.5,N,0.9
1505427895.5,286046998.3,N,0.9
1505427915.3,286046998.2,N,0.9
1505427935.2,286047001.0,N,1.0
1505427955.0,286047000.4,N,1.0
1505427955.9,286047000.4,N,1.0
1505427975.8,286047000.5,N,1.0
1505427995.6,286047000.5,N,1.0
1505428015.4,286046999.8,N,1.0
1505428035.3,286046998.6,N,1.0
1505428055.1,286046999.0,N,1.0
1505428075.8,286047001.2,N,1.0
1505428125.7,286046999.3,E,nan
1505428135.6,286046998.5,N,0.0
1505428155.5,286047001.2,P,1.4
1505428175.3,286047000.3,N,1.1
1505428195.1,286047000.6,N,1.0
1505428215.9,286046999.9,N,0.9
1505428235.7,286046999.8,N,0.8
1505428255.6,286047000.9,N,0.8
1505428275.4,286046999.9,N,0.8
1505428295.2,286047002.4,Y,0.0
1505428315.1,286047002.0,P,0.9
1505428316.0,286047002.0,N,0.9
1505428335.8,286046999.8,N,1.0
1505428355.7,286047000.0,N,1.0
1505428375.5,286047000.3,N,0.9
1505428395.3,286046999.9,N,0.9
1505428415.2,286047000.1,N,0.9
1505428435.0,286047002.4,N,1.0
1505428435.9,286047002.4,N,1.1
1505428455.8,286046999.9,N,1.1
1505428475.6,286047002.8,N,1.2
1505428495.4,286047002.0,N,1.1
1505428515.3,286046999.8,N,1.1
1505428535.1,286047000.3,N,1.1
1505428555.8,286047000.9,N,1.1
1505428575.7,286047000.2,N,1.1
1505428595.5,286047000.2,N,1.0
1505428615.4,286047000.0,N,1.0
1505428635.2,286047000.7,N,1.0
1505428655.0,286047000.5,N,1.0
1505428655.9,286047000.5,N,1.0
1505428675.8,286047000.9,N,0.9
1505428695.6,286046998.5,N,1.0
1505428715.5,286046998.7,N,1.1
1505428735.3,286047000.8,N,1.1
1505428755.1,286046998.3,N,1.1
1505428775.9,286046996.5,Y,0.0
1505428795.7,286046996.7,P,1.9
1505428815.6,286046997.7,N,1.6
1505428835.4,286046997.7,N,1.4
1505428855.2,286046997.4,N,1.3
1505428875.1,286046995.2,Y,0.0
1505428876.0,286046995.2,P,1.4
1505428895.8,286046999.0,N,1.6
1505428915.7,286046999.1,N,1.6
1505428935.5,286046997.3,N,1.4
1505428955.3,286046997.7,N,1.3
1505428975.2,286046997.8,N,1.2
1505428995.0,286046997.2,N,1.1
1505428995.9,286046997.2,N,1.1
1505429015.8,286046995.3,Y,0.0
1505429035.6,286046999.6,P,1.0
1505429055.4,286046999.3,N,0.9
1505429075.3,286046999.3,N,0.8
1505429095.1,286046999.1,N,0.7
1505429115.9,286046998.9,N,0.6
1505429135.7,286046996.5,Y,0.0
1505429155.5,286046998.4,P,0.3
1505429175.4,286046999.1,P,0.3
1505429195.2,286046998.9,P,0.3
1505429215.0,286046999.4,N,0.3
1505429216.0,286046999.4,N,0.3
1505429235.8,286046999.6,N,0.4
1505429255.6,286046997.2,Y,0.0
1505429275.5,286046996.8,P,1.2
1505429295.3,286046999.2,N,1.1
1505429315.1,286046997.0,N,1.1
1505429335.9,286046997.1,N,1.1
1505429355.7,286046998.7,N,1.0
1505429375.6,286046998.3,N,1.0
1505429395.4,286046996.6,Y,0.0
1505429415.2,286047001.1,P,1.5
1505429435.1,286047001.2,N,1.5
1505429436.0,286047001.2,N,1.4
1505429455.8,286046998.6,N,1.4
1505429475.7,286046998.8,N,1.4
1505429495.5,286046998.4,N,1.4
1505429515.3,286046999.4,N,1.3
1505429535.2,286046998.9,N,1.2
1505429555.0,286046998.9,N,1.2
1505429555.9,286046998.9,N,1.1
1505429575.8,286046998.9,N,1.1
1505429595.6,286046998.6,N,1.1
1505429615.4,286046999.1,N,1.0
1505429635.3,286046999.4,N,1.0
1505429655.1,286046996.9,Y,0.0
1505429675.8,286046998.3,P,0.5
1505429695.7,286046998.4,P,0.4
1505429715.5,286046998.6,P,0.4
1505429735.4,286046998.6,Y,0.0
1505429755.2,286047002.7,P,2.0
1505429775.0,286047000.4,N,1.7
1505429775.9,286047000.4,N,1.4
1505429795.8,286047000.0,N,1.3
1505429815.6,286046998.1,N,1.5
1505429835.5,286047000.0,N,1.4
1505429855.3,286047000.2,N,1.3
1505429875.1,286047000.6,N,1.2
1505429895.9,286046998.3,N,1.3
1505429915.7,286047001.0,N,1.3
1505429935.5,286046998.4,N,1.3
1505429955.4,286047001.2,N,1.3
1505429975.2,286046998.7,N,1.3
1505429995.1,286046998.2,N,1.3
1505429996.0,286046998.2,N,1.3
